GOES 1 (SMS-C) 1 08366U 75100A 25293.53182463 -.00000120 00000+0 00000+0 0 9991 2 08366 5.2227 280.4432 0005646 326.4293 233.8008 1.00227483182660 GOES 2 1 10061U 77048A 25293.30198351 -.00000120 00000+0 00000+0 0 9997 2 10061 6.9949 295.3331 0011230 39.8924 343.1018 0.99401588 43893 GOES 3 1 10953U 78062A 25293.59925163 .00000063 00000+0 00000+0 0 9999 2 10953 7.4479 300.9908 0002933 290.0859 254.2374 0.99358793126155 GOES 4 1 11964U 80074A 25293.57004481 -.00000072 00000+0 00000+0 0 9998 2 11964 8.5102 304.7220 0029903 103.9131 279.0370 0.99227659125069 GOES 5 1 12472U 81049A 25293.46682432 -.00000291 00000+0 00000+0 0 9995 2 12472 9.7917 317.2131 0004484 292.6037 239.0519 1.00252950120442 GOES 6 1 14050U 83041A 25293.53485799 -.00000228 00000+0 00000+0 0 9998 2 14050 10.5762 322.7636 0004055 249.3003 284.8326 1.00232277213617 GOES 7 1 17561U 87022A 25293.20456973 .00000112 00000+0 00000+0 0 9998 2 17561 13.1465 339.3169 0000666 348.4363 183.1123 0.99893421124567 GOES 8 1 23051U 94022A 25293.62177537 -.00000154 00000+0 00000+0 0 9996 2 23051 14.2249 15.4762 0001866 96.1059 253.0664 0.98904725121757 GOES 9 1 23581U 95025A 25293.18636037 -.00000061 00000+0 00000+0 0 9991 2 23581 13.7487 16.2772 0008391 183.1426 173.2738 0.98798512110385 GOES 10 1 24786U 97019A 25293.18203628 -.00000172 00000+0 00000+0 0 9993 2 24786 12.8434 22.8027 0032031 229.9237 136.6047 0.99124418103699 GOES 11 1 26352U 00022A 25293.58365155 -.00000256 00000+0 00000+0 0 9993 2 26352 11.2936 48.7283 0005676 205.7661 145.8901 0.99045556 50090 GOES 12 1 26871U 01031A 25293.17386288 -.00000283 00000+0 00000+0 0 9995 2 26871 11.7470 39.2611 0005582 268.4081 276.6127 0.99139258 88381 EWS-G1 (GOES 13) 1 29155U 06018A 25293.60115831 .00000051 00000+0 00000+0 0 9997 2 29155 3.9069 79.3264 0059229 267.8664 148.0003 0.98785319 40884 GOES 14 1 35491U 09033A 25293.60150498 -.00000062 00000+0 00000+0 0 9998 2 35491 1.0575 86.0292 0003916 124.0270 287.3475 1.00271948 4196 EWS-G2 (GOES 15) 1 36411U 10008A 25293.58513667 .00000040 00000+0 00000+0 0 9998 2 36411 0.6747 85.6512 0005864 150.5051 65.2642 1.00275162 57234 GOES 16 1 41866U 16071A 25293.45954427 -.00000088 00000+0 00000+0 0 9996 2 41866 0.0818 70.7615 0002653 161.2117 217.9575 1.00272404 32691 GOES 17 1 43226U 18022A 25293.53390464 -.00000179 00000+0 00000+0 0 9991 2 43226 0.3179 90.3420 0002916 163.4775 238.1377 1.00271142 28029 GOES 18 1 51850U 22021A 25293.59587162 .00000100 00000+0 00000+0 0 9999 2 51850 0.0566 58.4206 0000530 213.7502 194.6631 1.00271723 4198 GOES 19 1 60133U 24119A 25293.39411062 -.00000246 00000+0 00000+0 0 9998 2 60133 0.0469 57.8989 0000761 222.7508 175.1628 1.00272838 4566